Weather History for Cambridge, MN

Change the Weather History Date:

Thursday, September 12, 2013

  Actual Average Record
Temperature  
Mean Temperature 62 °F -  
Max Temperature 73 °F 70 °F 91 °F (1948)
Min Temperature 50 °F 48 °F 32 °F (1964)
Degree Days  
Heating Degree Days 3    
Growing Degree Days 12 (Base 50)    
Moisture  
Dew Point 48 °F    
Average Humidity 62    
Maximum Humidity 77    
Minimum Humidity 46    
Precipitation  
Precipitation 0.00 in - - ()
Sea Level Pressure  
Sea Level Pressure 30.17 in    
Wind  
Wind Speed 5 mph (NNW)    
Max Wind Speed 20 mph    
Max Gust Speed 28 mph    
Visibility 10 miles    
Events      
Averages and records for this station are not official NWS values.
T = Trace of Precipitation, MM = Missing Value Source: NWS Daily Summary

Daily Weather History Graph

Daily Weather History Graph

Search for Another Location

Airport:

Trip Planner

Search our weather history database for the weather conditions in past years. The results will help you decide how hot, cold, wet, or windy it might be!

Date:

Astronomy

Sep. 12, 2013 Rise Set
Actual Time 6:48 AM CDT 7:29 PM CDT
Civil Twilight 6:18 AM CDT 7:59 PM CDT
Nautical Twilight 5:42 AM CDT 8:34 PM CDT
Astronomical Twilight 5:05 AM CDT 9:11 PM CDT
Moon 2:35 PM CDT (9/12) No Moon Set
Length of Visible Light 13h 41m
Length of Day
12h 41m
Waxing Crescent, 50% of the Moon is Illuminated
Sep 12
Waxing Crescent
Sep 12
First Quarter
Sep 19
Full
Sep 26
Last Quarter
Oct 4
New

Hourly Weather History & Observations

Time (CDT) Temp. Dew Point Humidity Pressure Visibility Wind Dir Wind Speed Gust Speed Precip Events Conditions
12:15 AM 62.6 °F 50.0 °F 63% 30.06 in 10.0 mi NW 4.6 mph - N/A   Clear
12:36 AM 62.6 °F 50.0 °F 63% 30.07 in 10.0 mi NW 5.8 mph - N/A   Clear
12:55 AM 62.6 °F 50.0 °F 63% 30.07 in 10.0 mi NNW 6.9 mph - N/A   Clear
1:15 AM 62.6 °F 50.0 °F 63% 30.08 in 10.0 mi NNW 5.8 mph - N/A   Clear
1:36 AM 60.8 °F 50.0 °F 68% 30.09 in 10.0 mi NNW 5.8 mph - N/A   Clear
1:55 AM 59.0 °F 48.2 °F 67% 30.09 in 10.0 mi NNW 5.8 mph - N/A   Clear
2:16 AM 57.2 °F 48.2 °F 72% 30.09 in 10.0 mi NW 3.5 mph - N/A   Clear
2:35 AM 57.2 °F 48.2 °F 72% 30.10 in 10.0 mi NW 3.5 mph - N/A   Clear
2:55 AM 57.2 °F 48.2 °F 72% 30.10 in 10.0 mi NW 3.5 mph - N/A   Clear
3:15 AM 55.4 °F 46.4 °F 72% 30.11 in 10.0 mi Calm Calm - N/A   Clear
3:35 AM 55.4 °F 48.2 °F 77% 30.11 in 10.0 mi Calm Calm - N/A   Clear
3:56 AM 55.4 °F 46.4 °F 72% 30.11 in 10.0 mi NW 3.5 mph - N/A   Clear
4:15 AM 55.4 °F 46.4 °F 72% 30.11 in 10.0 mi Calm Calm - N/A   Clear
4:36 AM 55.4 °F 46.4 °F 72% 30.11 in 10.0 mi Calm Calm - N/A   Clear
4:55 AM 55.4 °F 46.4 °F 72% 30.12 in 10.0 mi Calm Calm - N/A   Clear
5:16 AM 53.6 °F 46.4 °F 77% 30.12 in 10.0 mi Calm Calm - N/A   Clear
5:35 AM 53.6 °F 46.4 °F 77% 30.13 in 10.0 mi Calm Calm - N/A   Clear
5:55 AM 53.6 °F 46.4 °F 77% 30.13 in 10.0 mi Calm Calm - N/A   Clear
6:15 AM 51.8 °F 44.6 °F 76% 30.15 in 10.0 mi Calm Calm - N/A   Clear
6:35 AM 51.8 °F 44.6 °F 76% 30.15 in 10.0 mi Calm Calm - N/A   Clear
6:56 AM 51.8 °F 44.6 °F 76% 30.16 in 10.0 mi Calm Calm - N/A   Clear
7:15 AM 51.8 °F 44.6 °F 76% 30.16 in 10.0 mi Calm Calm - N/A   Clear
7:36 AM 53.6 °F 46.4 °F 77% 30.16 in 10.0 mi Calm Calm - N/A   Clear
7:55 AM 55.4 °F 46.4 °F 72% 30.17 in 10.0 mi Calm Calm - N/A   Clear
8:15 AM 55.4 °F 48.2 °F 77% 30.17 in 10.0 mi Calm Calm - N/A   Clear
8:35 AM 59.0 °F 50.0 °F 72% 30.18 in 10.0 mi NW 3.5 mph - N/A   Scattered Clouds
8:55 AM 60.8 °F 51.8 °F 72% 30.17 in 10.0 mi NW 3.5 mph - N/A   Scattered Clouds
9:16 AM 62.6 °F 51.8 °F 68% 30.18 in 10.0 mi NW 5.8 mph - N/A   Clear
9:35 AM 64.4 °F 51.8 °F 64% 30.19 in 10.0 mi NW 8.1 mph - N/A   Clear
9:56 AM 64.4 °F 53.6 °F 68% 30.19 in 10.0 mi NNW 6.9 mph - N/A   Clear
10:15 AM 64.4 °F 53.6 °F 68% 30.19 in 10.0 mi NNW 6.9 mph - N/A   Scattered Clouds
10:35 AM 66.2 °F 53.6 °F 64% 30.19 in 10.0 mi NW 6.9 mph - N/A   Scattered Clouds
10:55 AM 66.2 °F 53.6 °F 64% 30.19 in 10.0 mi NW 9.2 mph - N/A   Mostly Cloudy
11:16 AM 69.8 °F 53.6 °F 56% 30.19 in 10.0 mi NNW 8.1 mph - N/A   Scattered Clouds
11:35 AM 69.8 °F 51.8 °F 53% 30.19 in 10.0 mi NW 12.7 mph 18.4 mph N/A   Clear
11:55 AM 69.8 °F 51.8 °F 53% 30.20 in 10.0 mi North 11.5 mph - N/A   Clear
12:15 PM 71.6 °F 51.8 °F 50% 30.20 in 10.0 mi NNW 11.5 mph - N/A   Clear
12:35 PM 71.6 °F 51.8 °F 50% 30.20 in 10.0 mi NNW 9.2 mph 18.4 mph N/A   Scattered Clouds
12:55 PM 71.6 °F 51.8 °F 50% 30.20 in 10.0 mi NW 9.2 mph 16.1 mph N/A   Clear
1:15 PM 71.6 °F 51.8 °F 50% 30.19 in 10.0 mi NNW 11.5 mph 18.4 mph N/A   Clear
1:36 PM 71.6 °F 51.8 °F 50% 30.19 in 10.0 mi NW 19.6 mph 26.5 mph N/A   Clear
1:55 PM 73.4 °F 51.8 °F 47% 30.18 in 10.0 mi NNW 12.7 mph 23.0 mph N/A   Clear
2:16 PM 71.6 °F 50.0 °F 46% 30.18 in 10.0 mi NNW 10.4 mph 25.3 mph N/A   Scattered Clouds
2:35 PM 73.4 °F 51.8 °F 47% 30.18 in 10.0 mi NNW 18.4 mph 27.6 mph N/A   Scattered Clouds
2:56 PM 71.6 °F 51.8 °F 50% 30.18 in 10.0 mi NW 10.4 mph 20.7 mph N/A   Mostly Cloudy
3:15 PM 69.8 °F 50.0 °F 49% 30.18 in 10.0 mi NNW 9.2 mph 16.1 mph N/A   Overcast
3:36 PM 71.6 °F 51.8 °F 50% 30.17 in 10.0 mi NNW 9.2 mph 20.7 mph N/A   Mostly Cloudy
3:55 PM 71.6 °F 50.0 °F 46% 30.17 in 10.0 mi NNW 11.5 mph 19.6 mph N/A   Scattered Clouds
4:15 PM 73.4 °F 51.8 °F 47% 30.17 in 10.0 mi NNW 11.5 mph 16.1 mph N/A   Scattered Clouds
4:35 PM 69.8 °F 51.8 °F 53% 30.17 in 10.0 mi NNW 9.2 mph 16.1 mph N/A   Overcast
4:55 PM 71.6 °F 51.8 °F 50% 30.17 in 10.0 mi NNW 9.2 mph - N/A   Mostly Cloudy
5:15 PM 69.8 °F 50.0 °F 49% 30.17 in 10.0 mi NNW 9.2 mph - N/A   Overcast
5:36 PM 69.8 °F 51.8 °F 53% 30.17 in 10.0 mi NW 6.9 mph - N/A   Scattered Clouds
5:55 PM 69.8 °F 48.2 °F 46% 30.18 in 10.0 mi NNW 9.2 mph - N/A   Clear
6:16 PM 69.8 °F 48.2 °F 46% 30.18 in 10.0 mi NNW 6.9 mph 18.4 mph N/A   Scattered Clouds
6:35 PM 66.2 °F 48.2 °F 52% 30.18 in 10.0 mi North 6.9 mph - N/A   Scattered Clouds
6:55 PM 66.2 °F 48.2 °F 52% 30.19 in 10.0 mi North 4.6 mph - N/A   Clear
7:15 PM 64.4 °F 48.2 °F 56% 30.19 in 10.0 mi NNW 3.5 mph - N/A   Clear
7:35 PM 64.4 °F 46.4 °F 52% 30.19 in 10.0 mi Calm Calm - N/A   Clear
7:56 PM 62.6 °F 46.4 °F 55% 30.19 in 10.0 mi NNW 4.6 mph - N/A   Clear
8:15 PM 62.6 °F 46.4 °F 55% 30.20 in 10.0 mi Calm Calm - N/A   Clear
8:35 PM 60.8 °F 46.4 °F 59% 30.21 in 10.0 mi Calm Calm - N/A   Clear
8:55 PM 57.2 °F 44.6 °F 63% 30.21 in 10.0 mi Calm Calm - N/A   Clear
9:15 PM 57.2 °F 44.6 °F 63% 30.21 in 10.0 mi Calm Calm - N/A   Clear
9:36 PM 55.4 °F 44.6 °F 67% 30.22 in 10.0 mi Calm Calm - N/A   Clear
9:55 PM 53.6 °F 42.8 °F 67% 30.21 in 10.0 mi Calm Calm - N/A   Clear
10:15 PM 53.6 °F 42.8 °F 67% 30.22 in 10.0 mi Calm Calm - N/A   Clear
10:35 PM 53.6 °F 42.8 °F 67% 30.22 in 10.0 mi Calm Calm - N/A   Clear
10:56 PM 51.8 °F 42.8 °F 71% 30.23 in 10.0 mi Calm Calm - N/A   Clear
11:15 PM 53.6 °F 42.8 °F 67% 30.23 in 10.0 mi Calm Calm - N/A   Clear
11:35 PM 51.8 °F 42.8 °F 71% 30.23 in 10.0 mi Calm Calm - N/A   Clear
11:55 PM 50.0 °F 42.8 °F 76% 30.23 in 10.0 mi Calm Calm - N/A   Clear